sat.trackr.live / text

‹ back to catalog

STARLINK-3270

NORAD 50199 · 2021-125AV

PAYLOAD ACTIVE UNKNOWN

§ Identity

Operator
Country
US
Launch date
2021-12-18
Launch site
AFWTR
Launch vehicle
Mass (kg)
RCS (m²)

Purposes: comms

External: N2YO · Heavens-Above · Gunter

§ Orbital elements

Epoch: 2026-09-15T22:27:09.839520Z

Period
93.79 min
Inclination
53.1591°
Eccentricity
0.0001237
Mean motion
15.35398825 rev/d
Perigee alt
458.9 km
Apogee alt
460.6 km
Semi-major
6,837.9 km
B*
5.5059e-5
RAAN
94.9943°
Arg perigee
86.3867°
Mean anomaly
273.7278°
Rev number
26,558

§ Raw data

STARLINK-32701 50199U 21125AV  26258.93553055  .00001540  00000+0  55059-4 0  99902 50199  53.1591  94.9943 0001237  86.3867 273.7278 15.35398825265580

JSON: /api/v1/satellites/50199 · /tle

For live sub-satellite position, see the globe view (requires WebGL).

§ Visibility from observer

Set your observer location to see the next 7 days of passes ≥ 10°. The values pass through the URL so the page stays shareable.

No JS? Fill the form by hand. The geolocation button needs JavaScript.